Location: Dentlein
(49.1477°N, 10.4231°E)
Time: 01:55:02
(UTC+00:00)

Cosmos 2228 Rocket - Pass Details

Date: 23 May 2024
Orbit: 616 x 648 km, 82.5° (Epoch: 13 June)

Event Time Altitude Azimuth Distance (km) Brightness Sun altitude
Exits shadow 00:05:23 45° 200° (SSW) 860 3.3 -19.3°
Maximum altitude 00:06:42 80° 280° (W) 648 3.0 -19.3°
Drops below altitude 10° 00:11:14 10° 8° (N) 2,035 6.9 -19.1°
Sets 00:13:30 0° 9° (N) 2,954 8.2 -19.0°
